• In Portugal
  • List of Countries
  • For 7 days
  • Water Temperature
  • Satellite Maps
  • Weather Map
  • Weather Widgets
  • user-avatar
    Login

    Hourly Weather Lalitpur

    Today, 20 October, Friday

    Time Temperature Precipitation Wind Pressure Humidity
    00:00 +20°C° 0 mm 1 mps 652 mmHg 76%
    01:00 +19°C° 0 mm 1 mps 651 mmHg 74%
    02:00 +19°C° 0 mm 1 mps 651 mmHg 73%
    03:00 +19°C° 0 mm 1 mps 651 mmHg 71%
    04:00 +18°C° 0 mm 2 mps 651 mmHg 69%
    05:00 +18°C° 0 mm 2 mps 651 mmHg 67%
    06:00 +18°C° 0 mm 2 mps 651 mmHg 65%
    07:00 +21°C° 0 mm 1 mps 652 mmHg 59%
    08:00 +24°C° 0 mm 1 mps 652 mmHg 53%
    09:00 +26°C° 0 mm 1 mps 653 mmHg 47%
    10:00 +27°C° 0 mm 1 mps 653 mmHg 44%
    11:00 +28°C° 0 mm 2 mps 653 mmHg 41%
    12:00 +29°C° 0 mm 2 mps 653 mmHg 39%
    13:00 +28°C° 0 mm 2 mps 652 mmHg 42%
    14:00 +28°C° 0 mm 3 mps 651 mmHg 44%
    15:00 +28°C° 0 mm 3 mps 650 mmHg 47%
    16:00 +25°C° 0 mm 2 mps 650 mmHg 60%
    17:00 +23°C° 0 mm 1 mps 649 mmHg 73%
    18:00 +20°C° 0 mm 1 mps 649 mmHg 85%
    19:00 +20°C° 0.1 mm 1 mps 649 mmHg 85%
    20:00 +20°C° 0.1 mm 1 mps 650 mmHg 84%
    21:00 +19°C° 0.1 mm 1 mps 650 mmHg 83%
    22:00 +19°C° 0 mm 1 mps 650 mmHg 81%
    23:00 +19°C° 0 mm 1 mps 650 mmHg 79%

    Tomorrow, 21 October, Saturday

    Time Temperature Precipitation Wind Pressure Humidity
    00:00 +19°C° 0 mm 1 mps 650 mmHg 76%
    01:00 +19°C° 0 mm 1 mps 649 mmHg 73%
    02:00 +18°C° 0 mm 2 mps 649 mmHg 70%
    03:00 +18°C° 0 mm 2 mps 648 mmHg 67%
    04:00 +17°C° 0 mm 2 mps 648 mmHg 65%
    05:00 +18°C° 0 mm 1 mps 648 mmHg 63%
    06:00 +18°C° 0 mm 1 mps 648 mmHg 60%
    07:00 +20°C° 0 mm 1 mps 649 mmHg 58%
    08:00 +22°C° 0 mm 1 mps 650 mmHg 55%
    09:00 +24°C° 0 mm 1 mps 651 mmHg 53%
    10:00 +25°C° 0 mm 2 mps 650 mmHg 50%
    11:00 +26°C° 0 mm 2 mps 650 mmHg 47%
    12:00 +27°C° 0 mm 2 mps 650 mmHg 45%
    13:00 +27°C° 0 mm 3 mps 650 mmHg 49%
    14:00 +27°C° 0 mm 3 mps 649 mmHg 53%
    15:00 +26°C° 0 mm 3 mps 648 mmHg 57%
    16:00 +24°C° 0.2 mm 2 mps 647 mmHg 68%
    17:00 +21°C° 0.2 mm 2 mps 647 mmHg 79%
    18:00 +21°C° 0.2 mm 1 mps 646 mmHg 90%
    19:00 +20°C° 0.3 mm 1 mps 647 mmHg 89%
    20:00 +20°C° 0.3 mm 1 mps 647 mmHg 88%
    21:00 +20°C° 0.3 mm 1 mps 648 mmHg 87%
    22:00 +19°C° 0.1 mm 1 mps 648 mmHg 86%
    23:00 +19°C° 0.1 mm 1 mps 648 mmHg 84%

    Day after tomorrow, 22 October, Sunday

    Time Temperature Precipitation Wind Pressure Humidity
    00:00 +19°C° 0.1 mm 1 mps 647 mmHg 83%
    01:00 +19°C° 0 mm 1 mps 647 mmHg 80%
    02:00 +18°C° 0 mm 1 mps 647 mmHg 78%
    03:00 +18°C° 0 mm 1 mps 647 mmHg 76%
    04:00 +18°C° 0 mm 1 mps 647 mmHg 74%
    05:00 +18°C° 0 mm 1 mps 647 mmHg 71%
    06:00 +16°C° 0 mm 1 mps 647 mmHg 69%
    07:00 +19°C° 0 mm 1 mps 648 mmHg 65%
    08:00 +22°C° 0 mm 1 mps 649 mmHg 62%
    09:00 +24°C° 0 mm 1 mps 650 mmHg 58%
    10:00 +25°C° 0 mm 1 mps 650 mmHg 56%
    11:00 +26°C° 0 mm 2 mps 650 mmHg 53%
    12:00 +27°C° 0 mm 2 mps 650 mmHg 51%
    13:00 +26°C° 0.2 mm 2 mps 649 mmHg 56%
    14:00 +26°C° 0.2 mm 2 mps 649 mmHg 60%
    15:00 +25°C° 0.2 mm 2 mps 648 mmHg 65%
    16:00 +24°C° 0.3 mm 2 mps 648 mmHg 73%
    17:00 +22°C° 0.3 mm 1 mps 648 mmHg 80%
    18:00 +20°C° 0.3 mm 1 mps 647 mmHg 88%
    19:00 +20°C° 0.2 mm 1 mps 648 mmHg 88%
    20:00 +20°C° 0.2 mm 1 mps 649 mmHg 89%
    21:00 +17°C° 0.2 mm 0 mps 649 mmHg 89%
    22:00 +19°C° 0 mm 1 mps 649 mmHg 88%
    23:00 +19°C° 0 mm 1 mps 649 mmHg 87%

    23 October, Monday

    Time Temperature Precipitation Wind Pressure Humidity
    00:00 +19°C° 0 mm 1 mps 649 mmHg 86%
    01:00 +18°C° 0 mm 1 mps 649 mmHg 86%
    02:00 +18°C° 0 mm 1 mps 649 mmHg 85%
    03:00 +16°C° 0 mm 1 mps 649 mmHg 85%
    04:00 +16°C° 0 mm 1 mps 649 mmHg 83%
    05:00 +16°C° 0 mm 1 mps 649 mmHg 82%
    06:00 +16°C° 0 mm 1 mps 649 mmHg 81%
    07:00 +18°C° 0 mm 1 mps 650 mmHg 76%
    08:00 +20°C° 0 mm 1 mps 651 mmHg 72%
    09:00 +22°C° 0 mm 1 mps 652 mmHg 67%
    10:00 +23°C° 0.1 mm 2 mps 652 mmHg 65%
    11:00 +24°C° 0.1 mm 2 mps 651 mmHg 62%
    12:00 +25°C° 0.1 mm 2 mps 651 mmHg 59%
    13:00 +25°C° 0.4 mm 2 mps 651 mmHg 61%
    14:00 +25°C° 0.4 mm 2 mps 650 mmHg 62%
    15:00 +24°C° 0.4 mm 2 mps 650 mmHg 63%
    16:00 +21°C° 0.4 mm 2 mps 650 mmHg 72%
    17:00 +21°C° 0.4 mm 1 mps 649 mmHg 81%
    18:00 +19°C° 0.4 mm 1 mps 649 mmHg 89%
    19:00 +19°C° 0.4 mm 1 mps 650 mmHg 88%
    20:00 +18°C° 0.4 mm 1 mps 650 mmHg 87%
    21:00 +18°C° 0.4 mm 1 mps 651 mmHg 87%
    22:00 +18°C° 0.2 mm 1 mps 651 mmHg 85%
    23:00 +16°C° 0.2 mm 1 mps 651 mmHg 83%

    24 October, Tuesday

    Time Temperature Precipitation Wind Pressure Humidity
    00:00 +16°C° 0.2 mm 1 mps 651 mmHg 81%
    01:00 +16°C° 0.4 mm 1 mps 651 mmHg 79%
    02:00 +16°C° 0.4 mm 1 mps 650 mmHg 77%
    03:00 +15°C° 0.4 mm 1 mps 650 mmHg 75%
    04:00 +15°C° 0.2 mm 1 mps 650 mmHg 73%
    05:00 +15°C° 0.2 mm 1 mps 650 mmHg 71%
    06:00 +14°C° 0.2 mm 2 mps 651 mmHg 69%
    07:00 +18°C° 0.1 mm 1 mps 652 mmHg 65%
    08:00 +20°C° 0.1 mm 1 mps 653 mmHg 60%
    09:00 +22°C° 0.1 mm 1 mps 654 mmHg 55%
    10:00 +23°C° 0.3 mm 1 mps 654 mmHg 53%
    11:00 +23°C° 0.3 mm 2 mps 653 mmHg 50%
    12:00 +24°C° 0.3 mm 2 mps 653 mmHg 48%
    13:00 +24°C° 0.5 mm 2 mps 653 mmHg 50%
    14:00 +24°C° 0.5 mm 2 mps 652 mmHg 52%
    15:00 +23°C° 0.5 mm 2 mps 651 mmHg 54%
    16:00 +20°C° 0.6 mm 2 mps 651 mmHg 63%
    17:00 +19°C° 0.6 mm 1 mps 651 mmHg 72%
    18:00 +16°C° 0.6 mm 1 mps 650 mmHg 82%
    19:00 +16°C° 0.3 mm 1 mps 651 mmHg 79%
    20:00 +15°C° 0.3 mm 1 mps 651 mmHg 77%
    21:00 +15°C° 0.3 mm 1 mps 651 mmHg 75%
    22:00 +15°C° 0.2 mm 2 mps 651 mmHg 72%
    23:00 +15°C° 0.2 mm 2 mps 651 mmHg 69%

    25 October, Wednesday

    Time Temperature Precipitation Wind Pressure Humidity
    00:00 +14°C° 0.2 mm 2 mps 651 mmHg 67%
    01:00 +14°C° 0.1 mm 2 mps 651 mmHg 65%
    02:00 +14°C° 0.1 mm 2 mps 651 mmHg 63%
    03:00 +14°C° 0.1 mm 2 mps 651 mmHg 61%
    04:00 +14°C° 0 mm 2 mps 651 mmHg 59%
    05:00 +13°C° 0 mm 2 mps 651 mmHg 58%
    06:00 +13°C° 0 mm 2 mps 652 mmHg 56%
    07:00 +16°C° 0 mm 2 mps 653 mmHg 54%
    08:00 +19°C° 0 mm 1 mps 654 mmHg 51%
    09:00 +21°C° 0 mm 1 mps 655 mmHg 48%
    10:00 +22°C° 0.1 mm 1 mps 655 mmHg 47%
    11:00 +23°C° 0.1 mm 2 mps 655 mmHg 46%
    12:00 +24°C° 0.1 mm 2 mps 655 mmHg 46%
    13:00 +24°C° 0.3 mm 2 mps 654 mmHg 49%
    14:00 +23°C° 0.3 mm 2 mps 653 mmHg 53%
    15:00 +23°C° 0.3 mm 2 mps 653 mmHg 57%
    16:00 +21°C° 0.1 mm 1 mps 652 mmHg 65%
    17:00 +19°C° 0.1 mm 1 mps 652 mmHg 74%
    18:00 +15°C° 0.1 mm 0 mps 651 mmHg 82%
    19:00 +16°C° 0 mm 1 mps 652 mmHg 81%
    20:00 +16°C° 0 mm 1 mps 652 mmHg 80%
    21:00 +15°C° 0 mm 1 mps 652 mmHg 79%
    22:00 +15°C° 0 mm 1 mps 652 mmHg 78%
    23:00 +15°C° 0 mm 1 mps 652 mmHg 77%
    Show more